Location: Sternwarte Stuttgart
(48.7670°N, 9.1830°E)
Time: 00:55:31
(UTC+01:00)

Cosmos 1634 Rocket - Pass Details

Date: 24 January 2019
Orbit: 960 x 992 km, 82.9° (Epoch: 18 February)

Event Time Altitude Azimuth Distance (km) Brightness Sun altitude
Rises 05:18:18 0° 352° (N) 3,719 7.0 -27.0°
Reaches altitude 10° 05:20:52 10° 354° (N) 2,765 6.3 -26.5°
Maximum altitude 05:27:12 70° 78° (ENE) 1,048 4.2 -25.5°
Drops below altitude 10° 05:33:28 10° 163° (SSE) 2,731 6.5 -24.5°
Sets 05:35:59 0° 165° (SSE) 3,671 7.2 -24.0°
